Home > Weather > Pomona > Past weeks

Flag for USA Past Weather in Pomona, California, USA — Yesterday and Last 2 Weeks

Now
63 °F

Clear.


Feels Like: 63 °F
Forecast: 60 / 85 °F
Wind: 7 mph from West

Location: Chino Airport

Current Time: May 31, 2016 at 10:39:36 PM

Latest Report: May 31, 2016 at 9:53 PM


Visibility: 9 mi

Pressure: 29.89 "Hg

Humidity: 78%

Dew Point: 56 °F

Location of PomonaLocation

Past Weather in Pomona — Graph

°F

Pomona Temperature Yesterday

Maximum temperature yesterday: 81 °F (at 3:53 PM)
Minimum temperature yesterday: 57 °F (at 1:53 AM)
Average temperature yesterday: 67 °F

High & Low Weather Summary for the Past Weeks

 TemperatureHumidityPressure
High84 °F (May 18, 1:53 PM)93% (May 26, 4:53 AM)30.09 "Hg (May 26, 4:53 AM)
Low50 °F (May 26, 4:53 AM)30% (May 22, 1:53 PM)29.80 "Hg (May 19, 5:53 PM)
Average65 °F62%29.94 "Hg
* Reported May 16 9:00 PM — May 31 8:53 PM, Pomona, Weather by CustomWeather, © 2016

Note: Actual official high and low records may vary slightly from our data, if they occured in-between our weather recording intervals... More about our weather records

Advertising

Pomona Weather History for the Previous 24 Hours

Scroll right to see more
 ConditionsComfort  
Time TempWeatherWind HumidityBarometerVisibility
8:53 PM
Tue, May 31
64 °FSunny.8 mph75%29.87 "Hg10 mi
7:53 PM68 °FPassing clouds.12 mph65%29.85 "Hg10 mi
6:53 PM73 °FPassing clouds.12 mph55%29.83 "Hg10 mi
5:53 PM76 °FPassing clouds.14 mph50%29.81 "Hg10 mi
4:53 PM79 °FPassing clouds.16 mph45%29.81 "Hg10 mi
3:53 PM81 °FPassing clouds.12 mph42%29.82 "Hg10 mi
2:53 PM81 °FPassing clouds.16 mph41%29.83 "Hg10 mi
1:53 PM80 °FPassing clouds.13 mph44%29.84 "Hg8 mi
12:53 PM79 °FScattered clouds.10 mph45%29.85 "Hg6 mi
11:53 AM74 °FScattered clouds.9 mph53%29.87 "Hg5 mi
10:53 AM71 °FScattered clouds.6 mph59%29.88 "Hg5 mi
9:53 AM66 °FPartly sunny.6 mph70%29.89 "Hg5 mi
8:53 AM63 °FLow clouds.5 mph78%29.90 "Hg4 mi
7:53 AM61 °FLow clouds.6 mph81%29.90 "Hg3 mi
6:53 AM59 °FFog.3 mph87%29.89 "Hg2 mi
5:53 AM55 °FFog.3 mph90%29.88 "Hg2 mi
4:53 AM57 °FFog.No wind87%29.87 "Hg4 mi
3:53 AM57 °FFog.No wind87%29.88 "Hg5 mi
2:53 AM57 °FFog.5 mph87%29.88 "Hg6 mi
1:53 AM58 °FClear.5 mph87%29.88 "Hg7 mi
12:53 AM59 °FClear.3 mph81%29.89 "Hg8 mi
11:53 PM
Mon, May 30
60 °FClear.3 mph80%29.90 "Hg8 mi
10:53 PM62 °FClear.8 mph78%29.91 "Hg9 mi
Weather by CustomWeather, © 2016

See weather overviewHow to use our weather pages